• In Czech Republic
  • List of Countries
  • For 7 days
  • Water Temperature
  • Satellite Maps
  • Weather Map
  • Weather Widgets
  • user-avatar
    Login

    Hourly Weather Narman

    Today, 19 February, Monday

    Time Temperature Precipitation Wind Pressure Humidity
    00:00 -3°C° 0.1 mm 2 mps 610 mmHg 90%
    01:00 -4°C° 0 mm 2 mps 610 mmHg 90%
    02:00 -4°C° 0 mm 2 mps 610 mmHg 90%
    03:00 -3°C° 0 mm 1 mps 610 mmHg 90%
    04:00 -3°C° 0 mm 1 mps 610 mmHg 89%
    05:00 -3°C° 0 mm 1 mps 611 mmHg 89%
    06:00 -3°C° 0 mm 1 mps 611 mmHg 88%
    07:00 -3°C° 0 mm 1 mps 611 mmHg 87%
    08:00 -2°C° 0 mm 1 mps 611 mmHg 85%
    09:00 -1°C° 0 mm 1 mps 612 mmHg 83%
    10:00 0°C° 0 mm 1 mps 612 mmHg 80%
    11:00 +1°C° 0 mm 1 mps 612 mmHg 78%
    12:00 0°C° 0 mm 0 mps 612 mmHg 75%
    13:00 +2°C° 0 mm 1 mps 612 mmHg 74%
    14:00 +2°C° 0 mm 1 mps 612 mmHg 73%
    15:00 +3°C° 0 mm 1 mps 612 mmHg 72%
    16:00 +2°C° 0 mm 1 mps 612 mmHg 74%
    17:00 0°C° 0 mm 1 mps 611 mmHg 76%
    18:00 -1°C° 0 mm 1 mps 611 mmHg 77%
    19:00 -2°C° 0 mm 1 mps 611 mmHg 77%
    20:00 -2°C° 0 mm 1 mps 611 mmHg 76%
    21:00 -3°C° 0 mm 1 mps 611 mmHg 76%
    22:00 -3°C° 0 mm 1 mps 611 mmHg 74%
    23:00 -5°C° 0 mm 2 mps 611 mmHg 73%

    Tomorrow, 20 February, Tuesday

    Time Temperature Precipitation Wind Pressure Humidity
    00:00 -5°C° 0 mm 2 mps 611 mmHg 71%
    01:00 -5°C° 0 mm 2 mps 611 mmHg 70%
    02:00 -5°C° 0 mm 2 mps 611 mmHg 68%
    03:00 -6°C° 0 mm 2 mps 611 mmHg 67%
    04:00 -6°C° 0 mm 2 mps 611 mmHg 66%
    05:00 -6°C° 0 mm 2 mps 611 mmHg 65%
    06:00 -6°C° 0 mm 2 mps 611 mmHg 65%
    07:00 -5°C° 0 mm 2 mps 611 mmHg 65%
    08:00 -4°C° 0 mm 2 mps 612 mmHg 65%
    09:00 -4°C° 0 mm 2 mps 612 mmHg 66%
    10:00 -2°C° 0 mm 2 mps 612 mmHg 65%
    11:00 -1°C° 0 mm 2 mps 612 mmHg 65%
    12:00 +2°C° 0 mm 2 mps 613 mmHg 65%
    13:00 +2°C° 0 mm 2 mps 612 mmHg 65%
    14:00 +2°C° 0 mm 2 mps 612 mmHg 65%
    15:00 +3°C° 0 mm 2 mps 612 mmHg 66%
    16:00 +1°C° 0 mm 2 mps 612 mmHg 69%
    17:00 -1°C° 0 mm 2 mps 611 mmHg 73%
    18:00 0°C° 0 mm 1 mps 611 mmHg 76%
    19:00 -2°C° 0 mm 2 mps 611 mmHg 77%
    20:00 -3°C° 0 mm 2 mps 611 mmHg 78%
    21:00 -4°C° 0 mm 2 mps 611 mmHg 79%
    22:00 -4°C° 0 mm 2 mps 611 mmHg 79%
    23:00 -4°C° 0 mm 2 mps 611 mmHg 80%

    Day after tomorrow, 21 February, Wednesday

    Time Temperature Precipitation Wind Pressure Humidity
    00:00 -5°C° 0 mm 2 mps 611 mmHg 80%
    01:00 -4°C° 0 mm 2 mps 611 mmHg 81%
    02:00 -2°C° 0 mm 1 mps 611 mmHg 81%
    03:00 -2°C° 0 mm 1 mps 611 mmHg 82%
    04:00 -2°C° 0 mm 1 mps 611 mmHg 82%
    05:00 -2°C° 0 mm 1 mps 611 mmHg 83%
    06:00 -2°C° 0 mm 1 mps 611 mmHg 83%
    07:00 -1°C° 0 mm 1 mps 611 mmHg 82%
    08:00 -1°C° 0 mm 1 mps 611 mmHg 80%
    09:00 0°C° 0 mm 1 mps 612 mmHg 79%
    10:00 +1°C° 0 mm 1 mps 612 mmHg 77%
    11:00 +2°C° 0 mm 1 mps 612 mmHg 75%
    12:00 +3°C° 0 mm 1 mps 612 mmHg 74%
    13:00 +3°C° 0 mm 1 mps 611 mmHg 73%
    14:00 +4°C° 0 mm 1 mps 611 mmHg 73%
    15:00 +4°C° 0 mm 1 mps 611 mmHg 72%
    16:00 +3°C° 0.1 mm 1 mps 611 mmHg 76%
    17:00 +2°C° 0.1 mm 1 mps 610 mmHg 79%
    18:00 +1°C° 0.1 mm 1 mps 610 mmHg 82%
    19:00 0°C° 0.1 mm 1 mps 610 mmHg 83%
    20:00 0°C° 0.1 mm 1 mps 610 mmHg 84%
    21:00 0°C° 0.1 mm 1 mps 611 mmHg 84%
    22:00 0°C° 0 mm 1 mps 611 mmHg 84%
    23:00 -1°C° 0 mm 1 mps 610 mmHg 84%

    22 February, Thursday

    Time Temperature Precipitation Wind Pressure Humidity
    00:00 -1°C° 0 mm 1 mps 610 mmHg 85%
    01:00 -1°C° 0.1 mm 1 mps 610 mmHg 84%
    02:00 -1°C° 0.1 mm 1 mps 610 mmHg 84%
    03:00 -1°C° 0.1 mm 1 mps 610 mmHg 84%
    04:00 -1°C° 0.1 mm 1 mps 610 mmHg 84%
    05:00 -1°C° 0.1 mm 1 mps 610 mmHg 84%
    06:00 -1°C° 0.1 mm 1 mps 610 mmHg 84%
    07:00 -1°C° 0.1 mm 1 mps 611 mmHg 82%
    08:00 0°C° 0.1 mm 1 mps 611 mmHg 81%
    09:00 0°C° 0.1 mm 1 mps 611 mmHg 79%
    10:00 +1°C° 0 mm 1 mps 611 mmHg 77%
    11:00 +2°C° 0 mm 1 mps 611 mmHg 76%
    12:00 +3°C° 0 mm 1 mps 611 mmHg 74%
    13:00 +4°C° 0 mm 1 mps 611 mmHg 74%
    14:00 +4°C° 0 mm 1 mps 611 mmHg 73%
    15:00 +4°C° 0 mm 1 mps 611 mmHg 73%
    16:00 +3°C° 0.1 mm 1 mps 610 mmHg 76%
    17:00 +3°C° 0.1 mm 1 mps 610 mmHg 79%
    18:00 +1°C° 0.1 mm 0 mps 610 mmHg 83%
    19:00 0°C° 0 mm 0 mps 610 mmHg 84%
    20:00 0°C° 0 mm 0 mps 610 mmHg 85%
    21:00 -1°C° 0 mm 0 mps 610 mmHg 86%
    22:00 -1°C° 0 mm 0 mps 610 mmHg 86%
    23:00 -2°C° 0 mm 0 mps 610 mmHg 86%

    23 February, Friday

    Time Temperature Precipitation Wind Pressure Humidity
    00:00 -2°C° 0 mm 0 mps 610 mmHg 86%
    01:00 -2°C° 0 mm 0 mps 610 mmHg 85%
    02:00 -2°C° 0 mm 1 mps 610 mmHg 85%
    03:00 -2°C° 0 mm 1 mps 609 mmHg 84%
    04:00 -2°C° 0 mm 1 mps 609 mmHg 84%
    05:00 -2°C° 0 mm 1 mps 609 mmHg 83%
    06:00 -3°C° 0 mm 1 mps 609 mmHg 82%
    07:00 -2°C° 0 mm 1 mps 610 mmHg 80%
    08:00 -1°C° 0 mm 1 mps 610 mmHg 77%
    09:00 0°C° 0 mm 1 mps 611 mmHg 75%
    10:00 +1°C° 0 mm 1 mps 611 mmHg 72%
    11:00 +2°C° 0 mm 1 mps 611 mmHg 70%
    12:00 +4°C° 0 mm 1 mps 611 mmHg 68%
    13:00 +4°C° 0 mm 1 mps 611 mmHg 67%
    14:00 +4°C° 0 mm 1 mps 610 mmHg 66%
    15:00 +5°C° 0 mm 1 mps 610 mmHg 65%
    16:00 +3°C° 0 mm 1 mps 610 mmHg 68%
    17:00 +2°C° 0 mm 1 mps 610 mmHg 72%
    18:00 0°C° 0 mm 1 mps 609 mmHg 75%
    19:00 0°C° 0 mm 1 mps 610 mmHg 75%
    20:00 -1°C° 0 mm 1 mps 610 mmHg 76%
    21:00 -1°C° 0 mm 1 mps 610 mmHg 76%
    22:00 -1°C° 0 mm 1 mps 610 mmHg 76%
    23:00 -2°C° 0 mm 1 mps 610 mmHg 76%

    24 February, Saturday

    Time Temperature Precipitation Wind Pressure Humidity
    00:00 -2°C° 0 mm 1 mps 610 mmHg 75%
    01:00 -2°C° 0 mm 1 mps 610 mmHg 75%
    02:00 -2°C° 0 mm 1 mps 610 mmHg 75%
    03:00 -3°C° 0 mm 1 mps 610 mmHg 75%
    04:00 -3°C° 0 mm 1 mps 610 mmHg 75%
    05:00 -3°C° 0 mm 1 mps 610 mmHg 74%
    06:00 -3°C° 0 mm 1 mps 610 mmHg 74%
    07:00 -2°C° 0 mm 1 mps 610 mmHg 72%
    08:00 -1°C° 0 mm 1 mps 611 mmHg 70%
    09:00 0°C° 0 mm 1 mps 611 mmHg 68%
    10:00 +1°C° 0 mm 1 mps 611 mmHg 65%
    11:00 +2°C° 0 mm 1 mps 611 mmHg 63%
    12:00 +4°C° 0 mm 1 mps 611 mmHg 61%
    13:00 +4°C° 0 mm 1 mps 611 mmHg 60%
    14:00 +4°C° 0 mm 1 mps 611 mmHg 59%
    15:00 +5°C° 0 mm 1 mps 611 mmHg 59%
    16:00 +3°C° 0 mm 1 mps 610 mmHg 62%
    17:00 +2°C° 0 mm 1 mps 610 mmHg 65%
    18:00 0°C° 0 mm 1 mps 610 mmHg 68%
    19:00 0°C° 0 mm 1 mps 610 mmHg 68%
    20:00 -1°C° 0 mm 1 mps 610 mmHg 69%
    21:00 -1°C° 0 mm 1 mps 610 mmHg 69%
    22:00 -2°C° 0 mm 1 mps 610 mmHg 69%
    23:00 -2°C° 0 mm 1 mps 610 mmHg 68%
    Show more